Wind_Speed
15 14 13 10 9 8 7 6 6 8 12 14 15 18 21 22 24 25 27 28 27 26 26 27 27 28 28 30 29 29 30 30 30 30 30 30 31 32 32 32 32 32 33
17 16 14 13 11 10 9 7 5 4 6 8 10 13 16 19 21 23 23 25 25 25 25 26 26 26 27 28 29 29 29 28 29 30 29 29 30 30 30 30 30 31 32
18 17 16 15 13 11 10 8 7 5 4 5 6 9 12 15 17 18 19 21 22 23 23 24 25 25 25 26 27 27 27 27 27 28 29 29 28 28 28 28 27 27 28
20 19 18 17 15 13 12 11 9 7 5 4 4 5 8 10 12 14 16 18 20 21 22 22 22 23 23 24 25 25 25 26 26 26 26 27 26 26 26 26 25 24 25
21 20 18 18 17 15 13 12 11 9 7 6 5 6 7 8 10 12 14 16 18 19 20 20 21 21 22 22 22 23 24 24 23 23 22 22 23 23 22 23 23 23 22
21 20 20 19 18 17 16 14 12 10 9 8 7 6 7 7 7 9 11 13 15 17 17 18 19 20 20 20 20 20 20 20 20 19 19 18 18 19 19 19 19 20 20
22 21 21 20 19 18 17 16 14 12 11 9 8 7 7 7 7 7 8 10 11 12 13 15 16 16 16 16 16 17 17 16 16 15 15 15 15 15 16 17 16 15 15
22 22 21 21 21 20 19 17 16 14 13 11 10 9 7 6 5 5 6 7 8 9 11 12 12 13 13 13 13 13 14 14 14 14 14 13 13 14 14 14 12 11 11
23 23 22 22 21 21 20 19 18 17 15 14 13 12 9 6 4 3 3 4 4 6 7 9 9 10 10 10 10 11 12 12 13 12 12 11 10 10 10 9 9 8 8
23 23 23 23 23 22 21 21 20 18 17 15 15 14 12 10 7 4 2 0 2 3 4 6 7 8 7 7 8 8 8 9 10 11 10 9 8 8 7 7 7 6 6
23 23 23 23 23 23 22 22 22 21 19 18 17 16 15 13 11 8 6 4 2 2 3 5 7 7 7 6 7 6 6 7 7 7 7 7 6 6 6 5 5 5 5
22 22 23 23 23 24 23 23 22 22 21 19 19 18 17 15 13 11 9 7 6 4 5 7 7 7 6 6 5 5 5 6 6 6 6 5 5 5 4 4 4 4 4
21 22 22 22 23 23 23 23 22 22 22 21 20 19 18 17 15 14 12 10 8 7 7 8 8 7 6 5 5 4 4 5 5 5 5 5 4 4 3 4 4 3 3
20 20 21 22 22 22 23 23 22 22 22 21 21 20 20 18 17 16 14 13 11 11 10 9 9 8 8 7 6 6 5 5 5 4 5 4 3 3 3 3 3 2 1
18 19 19 20 21 21 22 22 22 22 21 21 21 20 20 19 19 18 17 16 15 13 12 11 10 9 9 8 7 7 6 5 5 5 4 4 3 3 3 2 2 2 1
16 16 17 18 19 20 20 20 20 21 20 20 21 20 19 19 19 19 18 17 16 14 13 12 11 10 10 9 8 7 7 6 5 5 4 4 4 3 3 3 2 2 1
13 14 15 16 17 17 18 18 18 19 19 19 19 19 19 19 18 18 18 17 16 15 14 13 12 11 10 9 9 8 7 6 5 5 5 5 4 4 3 3 3 2 1
12 12 13 13 14 15 15 16 16 17 17 17 17 17 17 17 17 16 16 16 16 15 14 14 13 12 11 10 10 9 9 8 7 6 6 5 5 5 4 3 3 2 2
10 10 11 11 11 12 12 13 14 14 14 14 14 15 15 15 15 15 14 14 13 13 13 12 11 11 10 9 9 9 8 8 7 7 6 6 5 4 4 3 2 2 1
10 10 9 9 10 10 10 10 11 11 12 12 12 12 12 12 13 13 13 13 12 12 11 10 10 9 9 9 8 8 7 7 6 6 5 4 4 3 3 2 1 1 1
10 10 9 9 8 8 8 8 9 9 9 9 9 9 10 10 10 10 10 10 10 10 10 9 9 8 8 7 7 6 6 6 5 5 4 3 3 2 1 1 1 2 2
12 11 11 10 9 8 8 8 7 7 7 7 7 7 7 7 7 7 7 7 7 7 7 7 7 6 6 6 5 5 4 4 4 3 2 2 2 1 2 2 2 3 3
14 13 13 12 11 11 10 9 8 8 7 7 7 6 6 6 6 5 5 5 5 5 5 5 4 4 4 4 3 3 3 2 2 2 2 2 3 3 3 3 4 4 5
18 17 16 15 14 13 12 12 11 10 10 9 9 8 8 7 7 6 6 5 5 5 4 4 4 4 4 4 4 3 3 3 3 3 4 4 4 4 5 5 6 6 7
21 20 19 18 18 17 16 15 14 14 13 13 12 11 11 10 10 9 8 8 7 7 7 6 6 6 6 6 6 6 6 6 6 6 6 6 7 7 7 8 8 9 9
25 24 23 22 21 20 20 19 18 17 17 16 16 15 15 14 14 13 13 12 12 11 11 10 10 10 9 9 9 9 9 9 9 10 10 10 10 10 10 11 11 11 12
Wind_Direction
19 18 18 11 3 357 349 321 289 261 251 250 246 242 240 239 238 240 240 239 240 239 240 241 241 244 246 247 246 247 250 251 253 254 255 257 260 261 261 261 263 265 265
23 23 22 20 15 15 14 3 344 312 280 263 254 247 245 243 243 243 242 241 242 241 239 240 241 244 245 246 244 246 249 252 254 254 256 259 260 262 264 264 265 265 266
24 23 21 19 17 16 14 12 7 352 321 286 265 253 250 247 245 244 240 240 242 243 243 243 244 246 247 247 247 248 251 253 256 256 258 260 261 263 265 265 267 267 267
26 25 25 24 23 21 21 19 15 9 354 321 297 276 264 256 250 246 241 243 244 245 246 246 247 247 248 250 250 250 251 254 256 257 259 260 260 262 263 263 264 265 267
27 27 26 25 24 23 22 19 16 13 4 347 326 303 291 276 262 254 249 248 246 245 247 248 248 250 252 251 251 252 252 254 255 257 259 262 260 259 259 261 261 262 263
27 26 25 24 25 23 22 20 17 12 4 354 341 326 310 293 279 263 254 250 246 247 248 248 249 251 251 249 251 252 251 252 254 256 257 258 257 256 256 256 259 259 260
26 26 25 25 25 23 22 20 19 18 15 7 359 347 330 314 295 278 269 257 250 248 247 247 249 249 247 246 247 246 245 247 250 250 250 251 251 252 252 252 251 251 255
27 27 26 27 27 27 25 24 24 22 19 16 12 3 349 332 309 286 272 264 251 246 242 240 238 237 238 240 241 239 238 239 243 245 245 243 241 244 249 251 249 247 250
28 29 30 29 29 28 28 26 25 25 25 24 21 18 14 10 350 316 289 269 252 240 232 228 225 223 224 228 229 230 231 231 233 234 234 233 232 235 236 239 237 238 245
28 28 29 29 28 29 28 28 28 29 31 30 27 25 24 24 28 33 24 307 234 230 215 205 197 197 202 203 208 213 214 216 217 219 223 222 220 219 222 226 226 233 246
28 29 29 29 29 30 30 31 32 33 34 34 34 34 34 36 41 45 51 61 81 136 163 170 171 168 176 185 195 201 196 196 200 205 208 211 210 212 217 217 223 233 241
28 29 30 30 31 31 32 33 34 35 36 38 39 41 41 42 44 49 55 61 70 91 119 136 143 147 161 172 175 179 181 186 187 191 195 197 200 208 216 214 217 226 243
28 29 30 30 31 32 33 34 36 38 39 40 40 42 45 45 47 51 58 64 71 88 104 116 126 129 132 136 140 145 152 163 170 178 186 187 185 187 197 202 206 222 237
26 28 29 30 31 32 34 35 37 39 40 42 44 46 47 49 52 55 58 66 77 87 95 100 106 111 112 116 119 127 134 140 149 155 161 169 173 174 179 186 200 219 233
22 25 27 28 30 32 34 36 37 39 41 43 45 48 50 53 56 59 62 68 75 82 89 92 96 100 101 107 112 118 124 129 132 138 145 152 157 160 160 165 182 190 206
18 22 24 27 29 31 33 35 37 39 41 43 47 49 52 54 58 61 63 66 71 77 82 86 89 94 97 98 100 106 112 114 118 125 130 135 137 138 138 141 146 147 166
12 15 19 22 26 28 31 33 36 38 41 43 46 49 51 55 58 61 62 64 68 71 75 79 84 89 92 92 93 97 100 102 107 114 119 124 128 130 130 131 134 128 106
6 9 12 15 19 23 27 30 33 36 38 42 44 47 50 53 55 58 61 63 66 69 72 74 78 82 85 86 87 88 90 92 97 102 107 112 116 118 119 118 116 104 83
353 358 3 7 11 15 19 24 28 31 35 38 41 44 47 50 53 55 57 60 62 65 68 71 74 76 78 79 80 82 84 86 90 96 102 104 106 110 113 110 101 81 56
334 339 345 353 359 4 9 14 19 23 27 32 36 39 43 45 49 51 54 56 58 61 64 68 71 73 73 74 77 79 80 82 83 87 93 97 101 107 109 105 75 22 357
317 320 324 329 336 344 352 358 4 10 16 21 25 30 35 39 42 46 50 52 54 57 59 61 62 62 64 67 71 72 72 73 75 78 82 85 89 90 79 36 349 337 337
301 304 306 309 313 317 324 331 338 346 354 2 9 15 20 25 29 34 37 41 44 47 50 52 53 53 54 55 57 58 58 57 59 61 60 52 39 5 334 324 321 322 324
286 289 292 293 295 297 299 303 308 314 320 326 333 341 347 353 357 1 5 9 13 18 24 29 30 29 27 25 23 21 20 19 14 6 351 336 325 316 311 309 310 311 312
277 279 281 283 284 285 286 288 290 293 296 299 302 306 310 315 320 322 324 324 326 328 329 331 334 337 338 339 339 336 331 321 313 310 310 310 308 306 304 303 304 306 306
272 273 274 275 277 278 278 279 280 282 284 285 287 289 290 292 295 296 298 300 301 301 301 301 301 301 303 302 302 301 299 297 294 292 293 295 295 294 294 295 297 298 299
268 269 270 270 271 272 273 274 275 276 277 278 279 280 281 282 283 284 285 286 287 287 287 287 287 288 288 287 287 286 285 285 285 285 285 285 286 287 287 288 290 292 293
Height
5775 5772 5769 5766 5765 5763 5762 5761 5760 5760 5761 5763 5764 5767 5770 5773 5776 5779 5782 5786 5790 5793 5796 5799 5803 5806 5808 5811 5814 5816 5819 5822 5824 5827 5829 5830 5832 5834 5835 5836 5838 5839 5839
5777 5774 5771 5768 5766 5764 5763 5761 5760 5760 5759 5760 5762 5764 5766 5768 5771 5774 5776 5780 5783 5786 5789 5792 5795 5798 5801 5803 5806 5809 5811 5814 5817 5819 5821 5823 5824 5826 5828 5829 5830 5830 5831
5780 5776 5773 5770 5768 5765 5764 5762 5761 5760 5759 5759 5760 5761 5762 5765 5767 5768 5771 5773 5777 5780 5783 5785 5788 5791 5794 5796 5799 5801 5804 5807 5809 5812 5813 5815 5817 5818 5820 5821 5822 5823 5823
5783 5779 5776 5773 5770 5767 5765 5763 5761 5760 5759 5758 5759 5759 5760 5761 5763 5765 5767 5769 5771 5774 5777 5779 5782 5784 5787 5790 5792 5795 5798 5800 5802 5804 5806 5808 5810 5811 5812 5814 5815 5816 5816
5786 5782 5779 5775 5772 5769 5766 5764 5762 5760 5759 5758 5758 5758 5758 5758 5760 5761 5762 5764 5766 5769 5771 5774 5776 5778 5781 5783 5786 5788 5791 5793 5795 5797 5799 5801 5802 5804 5806 5807 5809 5809 5810
5789 5785 5782 5778 5775 5771 5768 5765 5763 5761 5760 5758 5757 5757 5756 5756 5757 5757 5759 5760 5762 5764 5766 5768 5770 5773 5775 5777 5780 5782 5785 5787 5789 5791 5793 5795 5796 5798 5800 5801 5803 5804 5804
5792 5788 5784 5781 5777 5774 5770 5767 5765 5762 5760 5758 5757 5756 5755 5754 5754 5754 5755 5756 5758 5760 5762 5764 5766 5768 5770 5773 5775 5777 5780 5782 5785 5787 5789 5790 5792 5793 5795 5796 5797 5798 5799
5795 5791 5787 5783 5780 5776 5773 5769 5766 5764 5761 5759 5757 5756 5754 5753 5753 5752 5753 5754 5755 5756 5758 5760 5762 5764 5766 5769 5771 5773 5776 5778 5780 5783 5785 5786 5788 5789 5791 5793 5794 5794 5795
5799 5795 5791 5787 5783 5779 5776 5772 5768 5765 5762 5760 5758 5756 5754 5753 5752 5751 5751 5752 5752 5754 5755 5757 5759 5761 5763 5766 5768 5770 5772 5775 5777 5779 5781 5783 5784 5786 5788 5789 5790 5791 5792
5802 5798 5794 5790 5786 5782 5778 5775 5771 5767 5764 5762 5760 5757 5755 5753 5751 5751 5751 5751 5751 5752 5754 5755 5758 5760 5762 5764 5766 5768 5770 5773 5775 5777 5779 5780 5782 5783 5785 5786 5788 5789 5790
5806 5802 5798 5794 5790 5786 5782 5778 5774 5770 5767 5765 5762 5759 5757 5754 5753 5752 5751 5751 5751 5752 5753 5755 5757 5759 5762 5764 5765 5767 5769 5771 5773 5775 5777 5778 5780 5781 5783 5784 5786 5787 5788
5810 5806 5802 5798 5794 5789 5785 5781 5778 5774 5771 5768 5765 5762 5760 5757 5755 5754 5753 5752 5752 5753 5753 5755 5757 5759 5762 5764 5765 5767 5769 5770 5772 5774 5776 5777 5779 5780 5782 5783 5784 5786 5787
5813 5810 5806 5802 5798 5794 5790 5786 5782 5778 5775 5772 5769 5766 5763 5761 5759 5757 5755 5755 5754 5754 5755 5757 5759 5761 5762 5764 5766 5767 5769 5770 5772 5774 5775 5777 5778 5779 5781 5782 5783 5784 5785
5817 5813 5809 5805 5802 5798 5794 5790 5786 5783 5780 5777 5774 5771 5768 5765 5763 5761 5759 5758 5757 5758 5758 5760 5761 5762 5764 5766 5767 5768 5770 5771 5772 5774 5776 5777 5778 5779 5780 5781 5783 5784 5785
5820 5816 5813 5809 5805 5802 5798 5794 5791 5788 5784 5782 5778 5776 5773 5770 5768 5766 5764 5763 5762 5762 5762 5763 5764 5765 5766 5767 5769 5770 5771 5773 5774 5775 5776 5777 5778 5779 5780 5781 5782 5783 5784
5822 5819 5816 5812 5809 5806 5802 5799 5796 5792 5789 5786 5783 5781 5778 5776 5773 5772 5770 5769 5768 5767 5767 5767 5768 5768 5769 5770 5771 5772 5773 5774 5775 5776 5777 5778 5779 5780 5781 5782 5783 5783 5784
5824 5821 5818 5815 5812 5809 5806 5803 5800 5797 5794 5791 5788 5786 5783 5781 5779 5777 5776 5774 5773 5773 5772 5772 5772 5772 5773 5773 5774 5775 5775 5776 5777 5777 5778 5779 5780 5781 5782 5782 5783 5784 5784
5825 5822 5820 5817 5815 5812 5809 5806 5803 5801 5798 5795 5793 5790 5788 5786 5784 5782 5781 5780 5779 5778 5777 5777 5776 5776 5777 5777 5777 5777 5778 5778 5779 5779 5780 5780 5781 5782 5783 5783 5784 5784 5784
5825 5823 5821 5818 5816 5814 5811 5809 5806 5804 5801 5799 5797 5795 5792 5790 5789 5787 5785 5784 5783 5782 5781 5781 5780 5780 5780 5780 5780 5780 5780 5780 5781 5781 5782 5782 5783 5783 5784 5784 5785 5785 5785
5825 5823 5821 5819 5817 5815 5813 5810 5808 5806 5804 5802 5800 5798 5796 5794 5792 5791 5789 5788 5787 5786 5785 5784 5784 5783 5783 5783 5783 5783 5783 5783 5783 5783 5783 5784 5784 5784 5785 5785 5785 5785 5785
5823 5821 5820 5818 5816 5815 5813 5811 5809 5807 5805 5804 5802 5800 5798 5797 5795 5794 5792 5791 5790 5789 5788 5787 5787 5786 5786 5785 5785 5785 5785 5785 5785 5785 5785 5785 5785 5785 5785 5785 5785 5785 5785
5821 5819 5818 5816 5815 5813 5812 5811 5809 5808 5806 5804 5803 5801 5800 5798 5797 5796 5794 5793 5792 5791 5790 5790 5789 5788 5788 5787 5787 5787 5786 5786 5786 5786 5786 5785 5785 5785 5785 5785 5785 5784 5784
5817 5816 5815 5814 5812 5811 5810 5809 5808 5806 5805 5804 5803 5801 5800 5799 5798 5796 5795 5794 5793 5792 5791 5791 5790 5789 5789 5788 5788 5787 5787 5786 5786 5786 5786 5785 5785 5785 5784 5784 5784 5783 5782
5812 5811 5810 5810 5809 5808 5807 5806 5805 5804 5803 5802 5801 5800 5799 5798 5797 5796 5795 5794 5793 5792 5791 5790 5790 5789 5788 5788 5787 5787 5786 5786 5785 5785 5785 5784 5784 5783 5783 5782 5782 5781 5781
5805 5805 5805 5804 5804 5803 5802 5802 5801 5800 5800 5799 5798 5797 5797 5796 5795 5794 5793 5792 5791 5791 5790 5789 5788 5788 5787 5786 5786 5785 5785 5784 5784 5783 5783 5783 5782 5782 5781 5780 5780 5779 5778
5798 5798 5797 5797 5797 5797 5796 5796 5796 5795 5795 5794 5794 5793 5793 5792 5791 5791 5790 5789 5789 5788 5787 5787 5786 5785 5785 5784 5783 5783 5782 5782 5781 5781 5780 5780 5779 5779 5778 5777 5776 5775 5774